Location: Harwich
(41.7160°N, 69.9939°W)
Time: 14:39:52
(UTC+01:00)

A-11 Canister half - Pass Details

Date: 01 December 2023
Orbit: 1526 x 1682 km, 47.3° (Epoch: 01 March)

Event Time Altitude Azimuth Distance (km) Brightness Sun altitude
Rises 06:59:10 0° 294° (WNW) 4,900 - -62.5°
Reaches altitude 10° 07:02:21 10° 295° (WNW) 3,895 - -62.0°
Maximum altitude 07:12:20 90° 214° (SW) 1,614 - -60.5°
Drops below altitude 10° 07:21:57 10° 118° (ESE) 3,761 - -59.0°
Exits shadow 07:23:07 - 119° (ESE) 4,130 11.4 -58.8°
Sets 07:24:58 0° 119° (ESE) 4,725 11.8 -58.5°
